Location: *
(55.6049°S, 142.1985°W)
Time: 04:14:11
(UTC+00:00)

USA 308 - Pass Details

Date: 12 May 2021
Orbit: 568 x 576 km, 54.0° (Epoch: 10 May)

Event Time Altitude Azimuth Distance (km) Brightness Sun altitude
Exits shadow 14:04:28 40° 36° (NE) 871 3.9 -26.4°
Drops below altitude 10° 14:08:17 10° 96° (E) 1,905 6.6 -25.8°
Sets 14:10:38 0° 103° (ESE) 2,805 7.8 -25.5°
